Year,Month,Day,Hour,Minute,Value (Times are PST for temperature in C)
2017,06,21,00,00,13.60
2017,06,21,00,01,13.60
2017,06,21,00,02,13.60
2017,06,21,00,03,13.60
2017,06,21,00,04,13.60
2017,06,21,00,05,13.60
2017,06,21,00,06,13.60
2017,06,21,00,07,13.60
2017,06,21,00,08,13.50
2017,06,21,00,09,13.50
2017,06,21,00,10,13.50
2017,06,21,00,11,13.50
2017,06,21,00,12,13.40
2017,06,21,00,13,13.40
2017,06,21,00,14,13.40
2017,06,21,00,15,13.40
2017,06,21,00,16,13.40
2017,06,21,00,17,13.40
2017,06,21,00,18,13.40
2017,06,21,00,19,13.40
2017,06,21,00,20,13.40
2017,06,21,00,21,13.40
2017,06,21,00,22,13.40
2017,06,21,00,23,13.40
2017,06,21,00,24,13.40
2017,06,21,00,25,13.30
2017,06,21,00,26,13.30
2017,06,21,00,27,13.30
2017,06,21,00,28,13.30
2017,06,21,00,29,13.30
2017,06,21,00,30,13.30
2017,06,21,00,31,13.30
2017,06,21,00,32,13.30
2017,06,21,00,33,13.30
2017,06,21,00,34,13.30
2017,06,21,00,35,13.30
2017,06,21,00,36,13.30
2017,06,21,00,37,13.30
2017,06,21,00,38,13.30
2017,06,21,00,39,13.30
2017,06,21,00,40,13.30
2017,06,21,00,41,13.30
2017,06,21,00,42,13.30
2017,06,21,00,43,13.30
2017,06,21,00,44,13.30
2017,06,21,00,45,13.30
2017,06,21,00,46,13.30
2017,06,21,00,47,13.30
2017,06,21,00,48,13.30
2017,06,21,00,49,13.20
2017,06,21,00,50,13.20
2017,06,21,00,51,13.20
2017,06,21,00,52,13.20
2017,06,21,00,53,13.20
2017,06,21,00,54,13.20
2017,06,21,00,55,13.20
2017,06,21,00,56,13.20
2017,06,21,00,57,13.10
2017,06,21,00,58,13.10
2017,06,21,00,59,13.10
2017,06,21,01,00,13.00
2017,06,21,01,01,13.00
2017,06,21,01,02,12.90
2017,06,21,01,03,12.90
2017,06,21,01,04,12.90
2017,06,21,01,05,12.90
2017,06,21,01,06,12.90
2017,06,21,01,07,12.90
2017,06,21,01,08,12.80
2017,06,21,01,09,12.80
2017,06,21,01,10,12.80
2017,06,21,01,11,12.80
2017,06,21,01,12,12.70
2017,06,21,01,13,12.70
2017,06,21,01,14,12.70
2017,06,21,01,15,12.70
2017,06,21,01,16,12.70
2017,06,21,01,17,12.60
2017,06,21,01,18,12.60
2017,06,21,01,19,12.60
2017,06,21,01,20,12.60
2017,06,21,01,21,12.60
2017,06,21,01,22,12.60
2017,06,21,01,23,12.50
2017,06,21,01,24,12.50
2017,06,21,01,25,12.50
2017,06,21,01,26,12.50
2017,06,21,01,27,12.50
2017,06,21,01,28,12.40
2017,06,21,01,29,12.40
2017,06,21,01,30,12.40
2017,06,21,01,31,12.40
2017,06,21,01,32,12.40
2017,06,21,01,33,12.40
2017,06,21,01,34,12.40
2017,06,21,01,35,12.30
2017,06,21,01,36,12.30
2017,06,21,01,37,12.30
2017,06,21,01,38,12.30
2017,06,21,01,39,12.30
2017,06,21,01,40,12.30
2017,06,21,01,41,12.30
2017,06,21,01,42,12.30
2017,06,21,01,43,12.30
2017,06,21,01,44,12.30
2017,06,21,01,45,12.30
2017,06,21,01,46,12.20
2017,06,21,01,47,12.20
2017,06,21,01,48,12.20
2017,06,21,01,49,12.20
2017,06,21,01,50,12.20
2017,06,21,01,51,12.20
2017,06,21,01,52,12.10
2017,06,21,01,53,12.10
2017,06,21,01,54,12.10
2017,06,21,01,55,12.10
2017,06,21,01,56,12.00
2017,06,21,01,57,12.00
2017,06,21,01,58,12.00
2017,06,21,01,59,12.00
2017,06,21,02,00,11.90
2017,06,21,02,01,11.90
2017,06,21,02,02,11.90
2017,06,21,02,03,11.90
2017,06,21,02,04,11.90
2017,06,21,02,05,11.80
2017,06,21,02,06,11.80
2017,06,21,02,07,11.80
2017,06,21,02,08,11.80
2017,06,21,02,09,11.80
2017,06,21,02,10,11.80
2017,06,21,02,11,11.80
2017,06,21,02,12,11.80
2017,06,21,02,13,11.80
2017,06,21,02,14,11.80
2017,06,21,02,15,11.70
2017,06,21,02,16,11.70
2017,06,21,02,17,11.70
2017,06,21,02,18,11.70
2017,06,21,02,19,11.70
2017,06,21,02,20,11.70
2017,06,21,02,21,11.70
2017,06,21,02,22,11.70
2017,06,21,02,23,11.70
2017,06,21,02,24,11.70
2017,06,21,02,25,11.70
2017,06,21,02,26,11.70
2017,06,21,02,27,11.60
2017,06,21,02,28,11.60
2017,06,21,02,29,11.60
2017,06,21,02,30,11.60
2017,06,21,02,31,11.60
2017,06,21,02,32,11.60
2017,06,21,02,33,11.60
2017,06,21,02,34,11.60
2017,06,21,02,35,11.60
2017,06,21,02,36,11.50
2017,06,21,02,37,11.50
2017,06,21,02,38,11.50
2017,06,21,02,39,11.40
2017,06,21,02,40,11.40
2017,06,21,02,41,11.40
2017,06,21,02,42,11.40
2017,06,21,02,43,11.40
2017,06,21,02,44,11.40
2017,06,21,02,45,11.30
2017,06,21,02,46,11.30
2017,06,21,02,47,11.30
2017,06,21,02,48,11.30
2017,06,21,02,49,11.30
2017,06,21,02,50,11.20
2017,06,21,02,51,11.20
2017,06,21,02,52,11.20
2017,06,21,02,53,11.20
2017,06,21,02,54,11.20
2017,06,21,02,55,11.20
2017,06,21,02,56,11.10
2017,06,21,02,57,11.10
2017,06,21,02,58,11.10
2017,06,21,02,59,11.10
2017,06,21,03,00,11.00
2017,06,21,03,01,11.00
2017,06,21,03,02,11.00
2017,06,21,03,03,10.90
2017,06,21,03,04,10.90
2017,06,21,03,05,10.90
2017,06,21,03,06,10.90
2017,06,21,03,07,10.90
2017,06,21,03,08,10.90
2017,06,21,03,09,10.90
2017,06,21,03,10,10.90
2017,06,21,03,11,10.90
2017,06,21,03,12,10.90
2017,06,21,03,13,10.90
2017,06,21,03,14,10.90
2017,06,21,03,15,10.90
2017,06,21,03,16,10.90
2017,06,21,03,17,10.90
2017,06,21,03,18,10.90
2017,06,21,03,19,10.80
2017,06,21,03,20,10.80
2017,06,21,03,21,10.80
2017,06,21,03,22,10.80
2017,06,21,03,23,10.80
2017,06,21,03,24,10.80
2017,06,21,03,25,10.80
2017,06,21,03,26,10.80
2017,06,21,03,27,10.80
2017,06,21,03,28,10.80
2017,06,21,03,29,10.80
2017,06,21,03,30,10.80
2017,06,21,03,31,10.80
2017,06,21,03,32,10.80
2017,06,21,03,33,10.80
2017,06,21,03,34,10.80
2017,06,21,03,35,10.80
2017,06,21,03,36,10.80
2017,06,21,03,37,10.80
2017,06,21,03,38,10.80
2017,06,21,03,39,10.80
2017,06,21,03,40,10.80
2017,06,21,03,41,10.80
2017,06,21,03,42,10.80
2017,06,21,03,43,10.80
2017,06,21,03,44,10.80
2017,06,21,03,45,10.80
2017,06,21,03,46,10.80
2017,06,21,03,47,10.80
2017,06,21,03,48,10.70
2017,06,21,03,49,10.70
2017,06,21,03,50,10.70
2017,06,21,03,51,10.70
2017,06,21,03,52,10.70
2017,06,21,03,53,10.70
2017,06,21,03,54,10.60
2017,06,21,03,55,10.60
2017,06,21,03,56,10.60
2017,06,21,03,57,10.60
2017,06,21,03,58,10.60
2017,06,21,03,59,10.50
2017,06,21,04,00,10.50
2017,06,21,04,01,10.40
2017,06,21,04,02,10.40
2017,06,21,04,03,10.40
2017,06,21,04,04,10.40
2017,06,21,04,05,10.40
2017,06,21,04,06,10.40
2017,06,21,04,07,10.40
2017,06,21,04,08,10.40
2017,06,21,04,09,10.40
2017,06,21,04,10,10.40
2017,06,21,04,11,10.40
2017,06,21,04,12,10.30
2017,06,21,04,13,10.30
2017,06,21,04,14,10.30
2017,06,21,04,15,10.30
2017,06,21,04,16,10.20
2017,06,21,04,17,10.20
2017,06,21,04,18,10.20
2017,06,21,04,19,10.20
2017,06,21,04,20,10.20
2017,06,21,04,21,10.20
2017,06,21,04,22,10.20
2017,06,21,04,23,10.20
2017,06,21,04,24,10.20
2017,06,21,04,25,10.20
2017,06,21,04,26,10.20
2017,06,21,04,27,10.20
2017,06,21,04,28,10.20
2017,06,21,04,29,10.20
2017,06,21,04,30,10.10
2017,06,21,04,31,10.10
2017,06,21,04,32,10.10
2017,06,21,04,33,10.10
2017,06,21,04,34,10.10
2017,06,21,04,35,10.00
2017,06,21,04,36,10.00
2017,06,21,04,37,10.00
2017,06,21,04,38,10.10
2017,06,21,04,39,10.00
2017,06,21,04,40,10.00
2017,06,21,04,41,10.00
2017,06,21,04,42,10.00
2017,06,21,04,43,9.90
2017,06,21,04,44,9.90
2017,06,21,04,45,9.90
2017,06,21,04,46,9.90
2017,06,21,04,47,9.90
2017,06,21,04,48,9.90
2017,06,21,04,49,9.90
2017,06,21,04,50,9.80
2017,06,21,04,51,9.80
2017,06,21,04,52,9.80
2017,06,21,04,53,9.80
2017,06,21,04,54,9.80
2017,06,21,04,55,9.80
2017,06,21,04,56,9.80
2017,06,21,04,57,9.80
2017,06,21,04,58,9.80
2017,06,21,04,59,9.80
2017,06,21,05,00,9.80
2017,06,21,05,01,9.80
2017,06,21,05,02,9.80
2017,06,21,05,03,9.80
2017,06,21,05,04,9.80
2017,06,21,05,05,9.80
2017,06,21,05,06,9.70
2017,06,21,05,07,9.70
2017,06,21,05,08,9.60
2017,06,21,05,09,9.60
2017,06,21,05,10,9.60
2017,06,21,05,11,9.60
2017,06,21,05,12,9.60
2017,06,21,05,13,9.60
2017,06,21,05,14,9.50
2017,06,21,05,15,9.50
2017,06,21,05,16,9.50
2017,06,21,05,17,9.50
2017,06,21,05,18,9.50
2017,06,21,05,19,9.50
2017,06,21,05,20,9.50
2017,06,21,05,21,9.40
2017,06,21,05,22,9.40
2017,06,21,05,23,9.40
2017,06,21,05,24,9.40
2017,06,21,05,25,9.40
2017,06,21,05,26,9.40
2017,06,21,05,27,9.40
2017,06,21,05,28,9.40
2017,06,21,05,29,9.40
2017,06,21,05,30,9.40
2017,06,21,05,31,9.40
2017,06,21,05,32,9.40
2017,06,21,05,33,9.40
2017,06,21,05,34,9.40
2017,06,21,05,35,9.30
2017,06,21,05,36,9.30
2017,06,21,05,37,9.30
2017,06,21,05,38,9.30
2017,06,21,05,39,9.30
2017,06,21,05,40,9.30
2017,06,21,05,41,9.30
2017,06,21,05,42,9.30
2017,06,21,05,43,9.30
2017,06,21,05,44,9.30
2017,06,21,05,45,9.30
2017,06,21,05,46,9.30
2017,06,21,05,47,9.30
2017,06,21,05,48,9.30
2017,06,21,05,49,9.30
2017,06,21,05,50,9.30
2017,06,21,05,51,9.40
2017,06,21,05,52,9.40
2017,06,21,05,53,9.40
2017,06,21,05,54,9.40
2017,06,21,05,55,9.40
2017,06,21,05,56,9.40
2017,06,21,05,57,9.40
2017,06,21,05,58,9.40
2017,06,21,05,59,9.40
2017,06,21,06,00,9.40
2017,06,21,06,01,9.40
2017,06,21,06,02,9.50
2017,06,21,06,03,9.50
2017,06,21,06,04,9.50
2017,06,21,06,05,9.50
2017,06,21,06,06,9.50
2017,06,21,06,07,9.50
2017,06,21,06,08,9.50
2017,06,21,06,09,9.50
2017,06,21,06,10,9.60
2017,06,21,06,11,9.60
2017,06,21,06,12,9.60
2017,06,21,06,13,9.60
2017,06,21,06,14,9.60
2017,06,21,06,15,9.60
2017,06,21,06,16,9.60
2017,06,21,06,17,9.60
2017,06,21,06,18,9.60
2017,06,21,06,19,9.60
2017,06,21,06,20,9.60
2017,06,21,06,21,9.60
2017,06,21,06,22,9.70
2017,06,21,06,23,9.70
2017,06,21,06,24,9.70
2017,06,21,06,25,9.70
2017,06,21,06,26,9.70
2017,06,21,06,27,9.70
2017,06,21,06,28,9.70
2017,06,21,06,29,9.70
2017,06,21,06,30,9.70
2017,06,21,06,31,9.70
2017,06,21,06,32,9.80
2017,06,21,06,33,9.80
2017,06,21,06,34,9.80
2017,06,21,06,35,9.80
2017,06,21,06,36,9.80
2017,06,21,06,37,9.80
2017,06,21,06,38,9.80
2017,06,21,06,39,9.80
2017,06,21,06,40,9.80
2017,06,21,06,41,9.80
2017,06,21,06,42,9.80
2017,06,21,06,43,9.90
2017,06,21,06,44,9.90
2017,06,21,06,45,9.90
2017,06,21,06,46,9.90
2017,06,21,06,47,9.90
2017,06,21,06,48,10.00
2017,06,21,06,49,10.00
2017,06,21,06,50,10.10
2017,06,21,06,51,10.10
2017,06,21,06,52,10.10
2017,06,21,06,53,10.10
2017,06,21,06,54,10.20
2017,06,21,06,55,10.20
2017,06,21,06,56,10.20
2017,06,21,06,57,10.20
2017,06,21,06,58,10.20
2017,06,21,06,59,10.30
2017,06,21,07,00,10.30
2017,06,21,07,01,10.30
2017,06,21,07,02,10.40
2017,06,21,07,03,10.40
2017,06,21,07,04,10.40
2017,06,21,07,05,10.40
2017,06,21,07,06,10.50
2017,06,21,07,07,10.50
2017,06,21,07,08,10.60
2017,06,21,07,09,10.60
2017,06,21,07,10,10.60
2017,06,21,07,11,10.70
2017,06,21,07,12,10.70
2017,06,21,07,13,10.80
2017,06,21,07,14,10.80
2017,06,21,07,15,10.90
2017,06,21,07,16,10.90
2017,06,21,07,17,11.00
2017,06,21,07,18,11.00
2017,06,21,07,19,11.10
2017,06,21,07,20,11.20
2017,06,21,07,21,11.20
2017,06,21,07,22,11.20
2017,06,21,07,23,11.30
2017,06,21,07,24,11.30
2017,06,21,07,25,11.30
2017,06,21,07,26,11.40
2017,06,21,07,27,11.50
2017,06,21,07,28,11.50
2017,06,21,07,29,11.60
2017,06,21,07,30,11.70
2017,06,21,07,31,11.80
2017,06,21,07,32,11.80
2017,06,21,07,33,11.90
2017,06,21,07,34,11.90
2017,06,21,07,35,11.90
2017,06,21,07,36,12.00
2017,06,21,07,37,12.10
2017,06,21,07,38,12.10
2017,06,21,07,39,12.10
2017,06,21,07,40,12.20
2017,06,21,07,41,12.20
2017,06,21,07,42,12.30
2017,06,21,07,43,12.30
2017,06,21,07,44,12.30
2017,06,21,07,45,12.30
2017,06,21,07,46,12.40
2017,06,21,07,47,12.40
2017,06,21,07,48,12.40
2017,06,21,07,49,12.40
2017,06,21,07,50,12.40
2017,06,21,07,51,12.40
2017,06,21,07,52,12.40
2017,06,21,07,53,12.50
2017,06,21,07,54,12.50
2017,06,21,07,55,12.50
2017,06,21,07,56,12.50
2017,06,21,07,57,12.50
2017,06,21,07,58,12.60
2017,06,21,07,59,12.60
2017,06,21,08,00,12.60
2017,06,21,08,01,12.70
2017,06,21,08,02,12.70
2017,06,21,08,03,12.80
2017,06,21,08,04,12.80
2017,06,21,08,05,12.90
2017,06,21,08,06,13.00
2017,06,21,08,07,13.00
2017,06,21,08,08,13.10
2017,06,21,08,09,13.10
2017,06,21,08,10,13.20
2017,06,21,08,11,13.20
2017,06,21,08,12,13.20
2017,06,21,08,13,13.20
2017,06,21,08,14,13.20
2017,06,21,08,15,13.20
2017,06,21,08,16,13.30
2017,06,21,08,17,13.30
2017,06,21,08,18,13.30
2017,06,21,08,19,13.40
2017,06,21,08,20,13.40
2017,06,21,08,21,13.50
2017,06,21,08,22,13.50
2017,06,21,08,23,13.50
2017,06,21,08,24,13.60
2017,06,21,08,25,13.60
2017,06,21,08,26,13.60
2017,06,21,08,27,13.70
2017,06,21,08,28,13.80
2017,06,21,08,29,13.80
2017,06,21,08,30,13.80
2017,06,21,08,31,13.80
2017,06,21,08,32,13.80
2017,06,21,08,33,13.80
2017,06,21,08,34,13.80
2017,06,21,08,35,13.80
2017,06,21,08,36,13.80
2017,06,21,08,37,13.80
2017,06,21,08,38,13.90
2017,06,21,08,39,13.90
2017,06,21,08,40,13.90
2017,06,21,08,41,13.90
2017,06,21,08,42,13.80
2017,06,21,08,43,13.80
2017,06,21,08,44,13.80
2017,06,21,08,45,13.80
2017,06,21,08,46,13.80
2017,06,21,08,47,13.80
2017,06,21,08,48,13.80
2017,06,21,08,49,13.80
2017,06,21,08,50,13.80
2017,06,21,08,51,13.80
2017,06,21,08,52,13.80
2017,06,21,08,53,13.80
2017,06,21,08,54,13.80
2017,06,21,08,55,13.80
2017,06,21,08,56,13.80
2017,06,21,08,57,13.80
2017,06,21,08,58,13.80
2017,06,21,08,59,13.80
2017,06,21,09,00,13.80
2017,06,21,09,01,13.80
2017,06,21,09,02,13.90
2017,06,21,09,03,13.90
2017,06,21,09,04,13.90
2017,06,21,09,05,13.90
2017,06,21,09,06,13.90
2017,06,21,09,07,13.90
2017,06,21,09,08,13.90
2017,06,21,09,09,13.90
2017,06,21,09,10,13.90
2017,06,21,09,11,14.00
2017,06,21,09,12,14.00
2017,06,21,09,13,14.00
2017,06,21,09,14,14.10
2017,06,21,09,15,14.10
2017,06,21,09,16,14.10
2017,06,21,09,17,14.10
2017,06,21,09,18,14.10
2017,06,21,09,19,14.20
2017,06,21,09,20,14.20
2017,06,21,09,21,14.20
2017,06,21,09,22,14.30
2017,06,21,09,23,14.30
2017,06,21,09,24,14.40
2017,06,21,09,25,14.40
2017,06,21,09,26,14.50
2017,06,21,09,27,14.50
2017,06,21,09,28,14.60
2017,06,21,09,29,14.60
2017,06,21,09,30,14.60
2017,06,21,09,31,14.70
2017,06,21,09,32,14.70
2017,06,21,09,33,14.80
2017,06,21,09,34,14.80
2017,06,21,09,35,14.90
2017,06,21,09,36,14.90
2017,06,21,09,37,14.90
2017,06,21,09,38,14.90
2017,06,21,09,39,15.00
2017,06,21,09,40,15.10
2017,06,21,09,41,15.10
2017,06,21,09,42,15.10
2017,06,21,09,43,15.10
2017,06,21,09,44,15.10
2017,06,21,09,45,15.00
2017,06,21,09,46,15.00
2017,06,21,09,47,15.00
2017,06,21,09,48,15.10
2017,06,21,09,49,15.20
2017,06,21,09,50,15.20
2017,06,21,09,51,15.20
2017,06,21,09,52,15.20
2017,06,21,09,53,15.20
2017,06,21,09,54,15.20
2017,06,21,09,55,15.20
2017,06,21,09,56,15.30
2017,06,21,09,57,15.40
2017,06,21,09,58,15.40
2017,06,21,09,59,15.40
2017,06,21,10,00,15.40
2017,06,21,10,01,15.40
2017,06,21,10,02,15.50
2017,06,21,10,03,15.60
2017,06,21,10,04,15.60
2017,06,21,10,05,15.60
2017,06,21,10,06,15.60
2017,06,21,10,07,15.70
2017,06,21,10,08,15.70
2017,06,21,10,09,15.80
2017,06,21,10,10,15.80
2017,06,21,10,11,15.90
2017,06,21,10,12,16.00
2017,06,21,10,13,16.10
2017,06,21,10,14,16.20
2017,06,21,10,15,16.30
2017,06,21,10,16,16.30
2017,06,21,10,17,16.20
2017,06,21,10,18,16.20
2017,06,21,10,19,16.20
2017,06,21,10,20,16.20
2017,06,21,10,21,16.10
2017,06,21,10,22,16.20
2017,06,21,10,23,16.20
2017,06,21,10,24,16.20
2017,06,21,10,25,16.30
2017,06,21,10,26,16.40
2017,06,21,10,27,16.50
2017,06,21,10,28,16.50
2017,06,21,10,29,16.60
2017,06,21,10,30,16.60
2017,06,21,10,31,16.70
2017,06,21,10,32,16.80
2017,06,21,10,33,16.90
2017,06,21,10,34,17.10
2017,06,21,10,35,17.10
2017,06,21,10,36,17.10
2017,06,21,10,37,17.00
2017,06,21,10,38,16.90
2017,06,21,10,39,16.90
2017,06,21,10,40,16.90
2017,06,21,10,41,16.90
2017,06,21,10,42,17.00
2017,06,21,10,43,17.00
2017,06,21,10,44,17.00
2017,06,21,10,45,17.00
2017,06,21,10,46,16.90
2017,06,21,10,47,16.90
2017,06,21,10,48,17.00
2017,06,21,10,49,17.00
2017,06,21,10,50,17.00
2017,06,21,10,51,17.00
2017,06,21,10,52,16.90
2017,06,21,10,53,16.90
2017,06,21,10,54,16.90
2017,06,21,10,55,16.90
2017,06,21,10,56,16.90
2017,06,21,10,57,16.90
2017,06,21,10,58,16.90
2017,06,21,10,59,16.90
2017,06,21,11,00,16.80
2017,06,21,11,01,16.70
2017,06,21,11,02,16.70
2017,06,21,11,03,16.60
2017,06,21,11,04,16.60
2017,06,21,11,05,16.60
2017,06,21,11,06,16.70
2017,06,21,11,07,16.80
2017,06,21,11,08,16.80
2017,06,21,11,09,16.80
2017,06,21,11,10,16.90
2017,06,21,11,11,17.00
2017,06,21,11,12,17.10
2017,06,21,11,13,17.10
2017,06,21,11,14,17.10
2017,06,21,11,15,17.10
2017,06,21,11,16,17.20
2017,06,21,11,17,17.30
2017,06,21,11,18,17.40
2017,06,21,11,19,17.50
2017,06,21,11,20,17.70
2017,06,21,11,21,17.80
2017,06,21,11,22,18.00
2017,06,21,11,23,18.10
2017,06,21,11,24,18.20
2017,06,21,11,25,18.40
2017,06,21,11,26,18.40
2017,06,21,11,27,18.40
2017,06,21,11,28,18.30
2017,06,21,11,29,18.30
2017,06,21,11,30,18.20
2017,06,21,11,31,18.20
2017,06,21,11,32,18.10
2017,06,21,11,33,18.10
2017,06,21,11,34,18.10
2017,06,21,11,35,18.00
2017,06,21,11,36,18.00
2017,06,21,11,37,18.00
2017,06,21,11,38,18.10
2017,06,21,11,39,18.00
2017,06,21,11,40,18.00
2017,06,21,11,41,17.90
2017,06,21,11,42,17.90
2017,06,21,11,43,18.00
2017,06,21,11,44,18.00
2017,06,21,11,45,17.90
2017,06,21,11,46,17.90
2017,06,21,11,47,18.00
2017,06,21,11,48,18.00
2017,06,21,11,49,18.00
2017,06,21,11,50,18.10
2017,06,21,11,51,18.10
2017,06,21,11,52,18.10
2017,06,21,11,53,18.10
2017,06,21,11,54,18.00
2017,06,21,11,55,18.10
2017,06,21,11,56,18.10
2017,06,21,11,57,18.10
2017,06,21,11,58,18.20
2017,06,21,11,59,18.30
2017,06,21,12,00,18.30
2017,06,21,12,01,18.30
2017,06,21,12,02,18.30
2017,06,21,12,03,18.30
2017,06,21,12,04,18.40
2017,06,21,12,05,18.40
2017,06,21,12,06,18.50
2017,06,21,12,07,18.50
2017,06,21,12,08,18.50
2017,06,21,12,09,18.60
2017,06,21,12,10,18.60
2017,06,21,12,11,18.60
2017,06,21,12,12,18.60
2017,06,21,12,13,18.60
2017,06,21,12,14,18.60
2017,06,21,12,15,18.60
2017,06,21,12,16,18.70
2017,06,21,12,17,18.70
2017,06,21,12,18,18.70
2017,06,21,12,19,18.70
2017,06,21,12,20,18.70
2017,06,21,12,21,18.70
2017,06,21,12,22,18.70
2017,06,21,12,23,18.70
2017,06,21,12,24,18.70
2017,06,21,12,25,19.20
2017,06,21,12,26,19.10
2017,06,21,12,27,18.90
2017,06,21,12,28,18.80
2017,06,21,12,29,18.60
2017,06,21,12,30,18.50
2017,06,21,12,31,18.50
2017,06,21,12,32,18.50
2017,06,21,12,33,18.50
2017,06,21,12,34,18.50
2017,06,21,12,35,18.50
2017,06,21,12,36,18.50
2017,06,21,12,37,18.50
2017,06,21,12,38,18.60
2017,06,21,12,39,18.60
2017,06,21,12,40,18.70
2017,06,21,12,41,18.80
2017,06,21,12,42,18.80
2017,06,21,12,43,18.90
2017,06,21,12,44,18.90
2017,06,21,12,45,19.00
2017,06,21,12,46,19.10
2017,06,21,12,47,19.30
2017,06,21,12,48,19.30
2017,06,21,12,49,19.30
2017,06,21,12,50,19.40
2017,06,21,12,51,19.40
2017,06,21,12,52,19.50
2017,06,21,12,53,19.50
2017,06,21,12,54,19.40
2017,06,21,12,55,19.30
2017,06,21,12,56,19.30
2017,06,21,12,57,19.20
2017,06,21,12,58,19.10
2017,06,21,12,59,19.10
2017,06,21,13,00,19.10
2017,06,21,13,01,19.20
2017,06,21,13,02,19.20
2017,06,21,13,03,19.20
2017,06,21,13,04,19.10
2017,06,21,13,05,19.10
2017,06,21,13,06,19.10
2017,06,21,13,07,19.00
2017,06,21,13,08,19.00
2017,06,21,13,09,19.10
2017,06,21,13,10,19.10
2017,06,21,13,11,19.10
2017,06,21,13,12,19.10
2017,06,21,13,13,19.10
2017,06,21,13,14,19.00
2017,06,21,13,15,18.90
2017,06,21,13,16,18.70
2017,06,21,13,17,18.60
2017,06,21,13,18,18.60
2017,06,21,13,19,18.50
2017,06,21,13,20,18.40
2017,06,21,13,21,18.50
2017,06,21,13,22,18.60
2017,06,21,13,23,18.60
2017,06,21,13,24,18.50
2017,06,21,13,25,18.60
2017,06,21,13,26,18.60
2017,06,21,13,27,18.70
2017,06,21,13,28,18.80
2017,06,21,13,29,18.80
2017,06,21,13,30,18.80
2017,06,21,13,31,18.80
2017,06,21,13,32,18.80
2017,06,21,13,33,18.70
2017,06,21,13,34,18.70
2017,06,21,13,35,18.70
2017,06,21,13,36,18.70
2017,06,21,13,37,18.60
2017,06,21,13,38,18.60
2017,06,21,13,39,18.60
2017,06,21,13,40,18.70
2017,06,21,13,41,18.70
2017,06,21,13,42,18.80
2017,06,21,13,43,18.80
2017,06,21,13,44,18.80
2017,06,21,13,45,18.80
2017,06,21,13,46,18.80
2017,06,21,13,47,18.80
2017,06,21,13,48,18.90
2017,06,21,13,49,18.90
2017,06,21,13,50,18.90
2017,06,21,13,51,18.90
2017,06,21,13,52,18.90
2017,06,21,13,53,18.90
2017,06,21,13,54,18.90
2017,06,21,13,55,18.90
2017,06,21,13,56,18.90
2017,06,21,13,57,18.90
2017,06,21,13,58,18.90
2017,06,21,13,59,19.00
2017,06,21,14,00,19.10
2017,06,21,14,01,19.10
2017,06,21,14,02,19.10
2017,06,21,14,03,19.00
2017,06,21,14,04,19.00
2017,06,21,14,05,19.00
2017,06,21,14,06,19.10
2017,06,21,14,07,19.10
2017,06,21,14,08,19.10
2017,06,21,14,09,19.10
2017,06,21,14,10,19.10
2017,06,21,14,11,19.10
2017,06,21,14,12,19.10
2017,06,21,14,13,19.10
2017,06,21,14,14,19.10
2017,06,21,14,15,19.10
2017,06,21,14,16,19.10
2017,06,21,14,17,19.00
2017,06,21,14,18,18.90
2017,06,21,14,19,18.90
2017,06,21,14,20,18.90
2017,06,21,14,21,18.90
2017,06,21,14,22,19.00
2017,06,21,14,23,19.10
2017,06,21,14,24,19.10
2017,06,21,14,25,19.20
2017,06,21,14,26,19.20
2017,06,21,14,27,19.30
2017,06,21,14,28,19.30
2017,06,21,14,29,19.30
2017,06,21,14,30,19.40
2017,06,21,14,31,19.40
2017,06,21,14,32,19.40
2017,06,21,14,33,19.50
2017,06,21,14,34,19.60
2017,06,21,14,35,19.60
2017,06,21,14,36,19.60
2017,06,21,14,37,19.60
2017,06,21,14,38,19.50
2017,06,21,14,39,19.50
2017,06,21,14,40,19.40
2017,06,21,14,41,19.50
2017,06,21,14,42,19.50
2017,06,21,14,43,19.50
2017,06,21,14,44,19.60
2017,06,21,14,45,19.70
2017,06,21,14,46,19.80
2017,06,21,14,47,19.90
2017,06,21,14,48,19.90
2017,06,21,14,49,19.80
2017,06,21,14,50,19.80
2017,06,21,14,51,19.80
2017,06,21,14,52,19.80
2017,06,21,14,53,19.80
2017,06,21,14,54,19.80
2017,06,21,14,55,19.80
2017,06,21,14,56,19.80
2017,06,21,14,57,19.80
2017,06,21,14,58,19.90
2017,06,21,14,59,19.90
2017,06,21,15,00,19.90
2017,06,21,15,01,19.90
2017,06,21,15,02,19.90
2017,06,21,15,03,19.90
2017,06,21,15,04,19.90
2017,06,21,15,05,20.00
2017,06,21,15,06,20.00
2017,06,21,15,07,20.10
2017,06,21,15,08,20.00
2017,06,21,15,09,20.00
2017,06,21,15,10,19.90
2017,06,21,15,11,19.90
2017,06,21,15,12,20.00
2017,06,21,15,13,20.00
2017,06,21,15,14,20.10
2017,06,21,15,15,20.20
2017,06,21,15,16,20.30
2017,06,21,15,17,20.30
2017,06,21,15,18,20.40
2017,06,21,15,19,20.40
2017,06,21,15,20,20.30
2017,06,21,15,21,20.30
2017,06,21,15,22,20.30
2017,06,21,15,23,20.30
2017,06,21,15,24,20.40
2017,06,21,15,25,20.40
2017,06,21,15,26,20.50
2017,06,21,15,27,20.50
2017,06,21,15,28,20.50
2017,06,21,15,29,20.50
2017,06,21,15,30,20.40
2017,06,21,15,31,20.30
2017,06,21,15,32,20.30
2017,06,21,15,33,20.30
2017,06,21,15,34,20.30
2017,06,21,15,35,20.40
2017,06,21,15,36,20.40
2017,06,21,15,37,20.50
2017,06,21,15,38,20.50
2017,06,21,15,39,20.60
2017,06,21,15,40,20.50
2017,06,21,15,41,20.40
2017,06,21,15,42,20.40
2017,06,21,15,43,20.40
2017,06,21,15,44,20.40
2017,06,21,15,45,20.40
2017,06,21,15,46,20.50
2017,06,21,15,47,20.40
2017,06,21,15,48,20.30
2017,06,21,15,49,20.30
2017,06,21,15,50,20.30
2017,06,21,15,51,20.30
2017,06,21,15,52,20.30
2017,06,21,15,53,20.40
2017,06,21,15,54,20.40
2017,06,21,15,55,20.50
2017,06,21,15,56,20.50
2017,06,21,15,57,20.50
2017,06,21,15,58,20.50
2017,06,21,15,59,20.50
2017,06,21,16,00,20.50
2017,06,21,16,01,20.50
2017,06,21,16,02,20.50
2017,06,21,16,03,20.50
2017,06,21,16,04,20.40
2017,06,21,16,05,20.20
2017,06,21,16,06,20.20
2017,06,21,16,07,20.10
2017,06,21,16,08,20.10
2017,06,21,16,09,20.10
2017,06,21,16,10,20.20
2017,06,21,16,11,20.30
2017,06,21,16,12,20.40
2017,06,21,16,13,20.50
2017,06,21,16,14,20.50
2017,06,21,16,15,20.40
2017,06,21,16,16,20.40
2017,06,21,16,17,20.50
2017,06,21,16,18,20.50
2017,06,21,16,19,20.40
2017,06,21,16,20,20.30
2017,06,21,16,21,20.30
2017,06,21,16,22,20.40
2017,06,21,16,23,20.40
2017,06,21,16,24,20.40
2017,06,21,16,25,20.40
2017,06,21,16,26,20.30
2017,06,21,16,27,20.30
2017,06,21,16,28,20.30
2017,06,21,16,29,20.30
2017,06,21,16,30,20.30
2017,06,21,16,31,20.30
2017,06,21,16,32,20.30
2017,06,21,16,33,20.30
2017,06,21,16,34,20.30
2017,06,21,16,35,20.30
2017,06,21,16,36,20.40
2017,06,21,16,37,20.50
2017,06,21,16,38,20.60
2017,06,21,16,39,20.60
2017,06,21,16,40,20.70
2017,06,21,16,41,20.80
2017,06,21,16,42,20.80
2017,06,21,16,43,20.70
2017,06,21,16,44,20.70
2017,06,21,16,45,20.60
2017,06,21,16,46,20.60
2017,06,21,16,47,20.60
2017,06,21,16,48,20.60
2017,06,21,16,49,20.60
2017,06,21,16,50,20.50
2017,06,21,16,51,20.50
2017,06,21,16,52,20.50
2017,06,21,16,53,20.50
2017,06,21,16,54,20.50
2017,06,21,16,55,20.50
2017,06,21,16,56,20.40
2017,06,21,16,57,20.40
2017,06,21,16,58,20.40
2017,06,21,16,59,20.40
2017,06,21,17,00,20.40
2017,06,21,17,01,20.30
2017,06,21,17,02,20.30
2017,06,21,17,03,20.40
2017,06,21,17,04,20.40
2017,06,21,17,05,20.40
2017,06,21,17,06,20.50
2017,06,21,17,07,20.50
2017,06,21,17,08,20.40
2017,06,21,17,09,20.40
2017,06,21,17,10,20.40
2017,06,21,17,11,20.50
2017,06,21,17,12,20.50
2017,06,21,17,13,20.50
2017,06,21,17,14,20.50
2017,06,21,17,15,20.50
2017,06,21,17,16,20.40
2017,06,21,17,17,20.40
2017,06,21,17,18,20.40
2017,06,21,17,19,20.30
2017,06,21,17,20,20.30
2017,06,21,17,21,20.30
2017,06,21,17,22,20.30
2017,06,21,17,23,20.40
2017,06,21,17,24,20.40